Regional Weather Roundup
Issued by NWS

Home | Current Version | Previous Version | Graphics & Text | Print | Product List | Glossary On
Versions: 1 2 3 4 5 6 7 8 9 10 11 12 13 14 15 16 17 18 19 20 21 22 23 24 25 26 27 28 29 30 31 32 33 34 35 36 37 38 39 40 41 42 43 44 45 46 47 48 49 50
000
ASUS43 KDMX 061007
RWRIA

WEATHER ROUNDUP FOR IOWA
NATIONAL WEATHER SERVICE DES MOINES IA
500 AM CDT MON JUL 06 2015

NOTE: "FAIR" INDICATES FEW OR NO CLOUDS BELOW 12,000 FEET WITH NO
SIGNIFICANT WEATHER AND/OR OBSTRUCTIONS TO VISIBILITY.

* - THESE STATIONS ARE NOT NWS STATIONS...THUS NOT UNDER NWS
QUALITY CONTROL.  THEY ALSO DO NOT REPORT WEATHER SUCH
AS PRECIPITATION OR FOG.

IAZ001>003-012>014-020>022-031>034-043>046-061100-
   NORTHWEST IOWA

CITY           SKY/WX    TMP DP  RH WIND       PRES   REMARKS
CARROLL *      CLOUDY    75  72  88 W7G15     29.81R
CHEROKEE *     LGT RAIN  70  70 100 N6        29.84F
DENISON *      LGT RAIN  73  70  88 VRB5G23   29.85R
LE MARS *      CLOUDY    72  70  94 E5        29.84R
ORANGE CITY *  LGT RAIN  70  68  94 E5        29.84S
SHELDON *      LGT RAIN  70  70 100 CALM      29.84R
SIOUX CITY     CLOUDY    71  68  90 SE5       29.84R
SPENCER        RAIN      70  66  87 S12       29.86R
STORM LAKE *   LGT RAIN  68  66  94 N5        29.85S
$$

IAZ055>058-069>071-079>083-090>094-061100-
   SOUTHWEST IOWA

CITY           SKY/WX    TMP DP  RH WIND       PRES   REMARKS
ATLANTIC *     MOCLDY    79  75  89 SW12      29.82R HX  82
AUDUBON *      CLEAR     77  73  88 SW5       29.83S
CLARINDA *     MOCLDY    79  79 100 S8        29.84R HX  83
COUNCIL BLFS * CLOUDY    79  73  83 W14G20    29.84R HX  82
CRESTON *      MOCLDY    75  72  88 S14       29.85R
HARLAN  *      CLOUDY    77  77 100 CALM      29.86S
LAMONI         CLOUDY    74  69  85 S10       29.86S
RED OAK *      CLOUDY    79  75  89 SW8       29.84R HX  82
SHENANDOAH *   CLOUDY    81  73  78 SW6       29.84R HX  85
$$

IAZ047>049-059>061-072>074-084-061100-
   CENTRAL IOWA

CITY           SKY/WX    TMP DP  RH WIND       PRES   REMARKS
AMES           CLOUDY    71  67  87 SE10      29.84R
ANKENY *       CLOUDY    77  73  88 SE7G15    29.83S
CHARITON *     MOCLDY    73  70  88 S14       29.85S
DES MOINES     CLOUDY    79  71  76 S10       29.82R HX  82
GRINNELL*      CLOUDY    72  68  88 W6        29.89R
KNOXVILLE *    MOCLDY    75  68  78 S9        29.84R
MARSHALLTOWN   TSTM      71  67  87 SW7G26    29.85F
PELLA *        CLOUDY    73  72  94 CALM      29.87R
PERRY *        CLOUDY    75  73  94 SE7       29.82R
$$

IAZ004>006-015-016-023>025-035-036-061100-
   NORTH CENTRAL IOWA

CITY           SKY/WX    TMP DP  RH WIND       PRES   REMARKS
ALGONA *       LGT RAIN  73  68  83 W20G26    29.86R
CLARION *      CLOUDY    75  72  88 S14       29.84R
ESTHERVILLE    HVY RAIN  69  68  96 SW12      29.86R FOG
FORT DODGE *   CLOUDY    75  72  88 SW6       29.85R
MASON CITY       N/A     74  71  91 S8        29.84R
FOREST CITY *  CLOUDY    73  70  88 W6        29.85R
IOWA FALLS *     N/A     72  68  88 S20G29    29.85R
$$

IAZ007>011-017>019-026>030-037>042-050>054-066-061100-
   NORTHEAST IOWA

CITY           SKY/WX    TMP DP  RH WIND       PRES   REMARKS
CEDAR RAPIDS   CLOUDY    71  69  93 S9        29.87F FOG
CHARLES CITY * PTCLDY    72  72 100 S13       29.84S
CLINTON *      MOCLDY    68  64  88 S9        29.95F
DECORAH *        N/A    N/A N/A N/A MISG        N/A
DUBUQUE        CLOUDY    68  65  90 S12       29.90F FOG
MONTICELLO *   CLEAR     70  70 100 SE6       29.89F FOG
OELWEIN *        N/A     72  68  88 S12       29.87S FOG
WATERLOO       CLOUDY    72  68  87 S16G23    29.83F
$$

IAZ064-065-067-068-078-061100-
   EAST CENTRAL IOWA

CITY           SKY/WX    TMP DP  RH WIND       PRES   REMARKS
DAVENPORT      MOCLDY    71  67  87 S13       29.92F
IOWA CITY      CLOUDY    70  68  93 SE7       29.89F FOG
MT. PLEASANT * MOCLDY    73  68  83 S10       29.90F HAZE
MUSCATINE *    CLEAR     72  68  88 SE8       29.90F FOG
QUAD CITIES    MOCLDY    71  66  84 S8        29.92F HAZE
$$

IAZ062-063-075>077-085>089-095>099-061100-
   SOUTHEAST IOWA

CITY           SKY/WX    TMP DP  RH WIND       PRES   REMARKS
BURLINGTON     MOCLDY    72  70  93 S12       29.92F FOG
FAIRFIELD *    CLEAR     73  68  83 S10       29.88F
FORT MADISON * CLEAR     70  70 100 S8        29.93F FOG
KEOKUK *       CLEAR     73  70  88 S7G13     29.91F
OSKALOOSA *      N/A     70  68  94 S8        29.87S
CENTERVILLE *  CLEAR     73  68  83 S10       29.90R
OTTUMWA        CLOUDY    72  69  90 S12       29.85F
WASHINGTON *   CLEAR     72  70  94 S9G15     29.90F FOG
$$

ABBREVIATIONS USED IN REMARKS
   TC - TEMPERATURES IN CELSIUS
  WCI - WIND CHILL INDEX
   HX - HEAT INDEX
  VSB - VISIBILITY
$$




USA.gov is the U.S. government's official web portal to all federal, state and local government web resources and services.